Date Hour Ending, MW ,,,,,,,,,,,,,,,,,
08/01/2016 1:00,323,,,,,,,,,,,,,,,,,
08/01/2016 2:00,302,,,,,,,,,,,,,,,,,
08/01/2016 3:00,301,,,,,,,,,,,,,,,,,
08/01/2016 4:00,284,,,,,,,,,,,,,,,,,
08/01/2016 5:00,277,,,,,,,,,,,,,,,,,
08/01/2016 6:00,280,,,,,,,,,,,,,,,,,
08/01/2016 7:00,286,,,,,,,,,,,,,,,,,
08/01/2016 8:00,285,,,,,,,,,,,,,,,,,
08/01/2016 9:00,326,,,,,,,,,,,,,,,,,
08/01/2016 10:00,382,,,,,,,,,,,,,,,,,
08/01/2016 11:00,418,,,,,,,,,,,,,,,,,
08/01/2016 12:00,443,,,,,,,,,,,,,,,,,
08/01/2016 13:00,439,,,,,,,,,,,,,,,,,
08/01/2016 14:00,426,,,,,,,,,,,,,,,,,
08/01/2016 15:00,419,,,,,,,,,,,,,,,,,
08/01/2016 16:00,430,,,,,,,,,,,,,,,,,
08/01/2016 17:00,424,,,,,,,,,,,,,,,,,
08/01/2016 18:00,394,,,,,,,,,,,,,,,,,
08/01/2016 19:00,401,,,,,,,,,,,,,,,,,
08/01/2016 20:00,388,,,,,,,,,,,,,,,,,
08/01/2016 21:00,395,,,,,,,,,,,,,,,,,
08/01/2016 22:00,397,,,,,,,,,,,,,,,,,
08/01/2016 23:00,353,,,,,,,,,,,,,,,,,
08/02/2016 0:00,354,,,,,,,,,,,,,,,,,
08/02/2016 1:00,365,,,,,,,,,,,,,,,,,
08/02/2016 2:00,344,,,,,,,,,,,,,,,,,
08/02/2016 3:00,341,,,,,,,,,,,,,,,,,
08/02/2016 4:00,331,,,,,,,,,,,,,,,,,
08/02/2016 5:00,326,,,,,,,,,,,,,,,,,
08/02/2016 6:00,340,,,,,,,,,,,,,,,,,
08/02/2016 7:00,359,,,,,,,,,,,,,,,,,
08/02/2016 8:00,436,,,,,,,,,,,,,,,,,
08/02/2016 9:00,467,,,,,,,,,,,,,,,,,
08/02/2016 10:00,483,,,,,,,,,,,,,,,,,
08/02/2016 11:00,506,,,,,,,,,,,,,,,,,
08/02/2016 12:00,526,,,,,,,,,,,,,,,,,
08/02/2016 13:00,517,,,,,,,,,,,,,,,,,
08/02/2016 14:00,502,,,,,,,,,,,,,,,,,
08/02/2016 15:00,473,,,,,,,,,,,,,,,,,
08/02/2016 16:00,472,,,,,,,,,,,,,,,,,
08/02/2016 17:00,469,,,,,,,,,,,,,,,,,
08/02/2016 18:00,446,,,,,,,,,,,,,,,,,
08/02/2016 19:00,420,,,,,,,,,,,,,,,,,
08/02/2016 20:00,413,,,,,,,,,,,,,,,,,
08/02/2016 21:00,420,,,,,,,,,,,,,,,,,
08/02/2016 22:00,432,,,,,,,,,,,,,,,,,
08/02/2016 23:00,414,,,,,,,,,,,,,,,,,
08/03/2016 0:00,441,,,,,,,,,,,,,,,,,
08/03/2016 1:00,401,,,,,,,,,,,,,,,,,
08/03/2016 2:00,365,,,,,,,,,,,,,,,,,
08/03/2016 3:00,347,,,,,,,,,,,,,,,,,
08/03/2016 4:00,339,,,,,,,,,,,,,,,,,
08/03/2016 5:00,331,,,,,,,,,,,,,,,,,
08/03/2016 6:00,344,,,,,,,,,,,,,,,,,
08/03/2016 7:00,398,,,,,,,,,,,,,,,,,
08/03/2016 8:00,470,,,,,,,,,,,,,,,,,
08/03/2016 9:00,522,,,,,,,,,,,,,,,,,
08/03/2016 10:00,536,,,,,,,,,,,,,,,,,
08/03/2016 11:00,542,,,,,,,,,,,,,,,,,
08/03/2016 12:00,549,,,,,,,,,,,,,,,,,
08/03/2016 13:00,535,,,,,,,,,,,,,,,,,
08/03/2016 14:00,525,,,,,,,,,,,,,,,,,
08/03/2016 15:00,502,,,,,,,,,,,,,,,,,
08/03/2016 16:00,471,,,,,,,,,,,,,,,,,
08/03/2016 17:00,466,,,,,,,,,,,,,,,,,
08/03/2016 18:00,468,,,,,,,,,,,,,,,,,
08/03/2016 19:00,441,,,,,,,,,,,,,,,,,
08/03/2016 20:00,431,,,,,,,,,,,,,,,,,
08/03/2016 21:00,427,,,,,,,,,,,,,,,,,
08/03/2016 22:00,419,,,,,,,,,,,,,,,,,
08/03/2016 23:00,401,,,,,,,,,,,,,,,,,
08/04/2016 0:00,356,,,,,,,,,,,,,,,,,
08/04/2016 1:00,303,,,,,,,,,,,,,,,,,
08/04/2016 2:00,275,,,,,,,,,,,,,,,,,
08/04/2016 3:00,280,,,,,,,,,,,,,,,,,
08/04/2016 4:00,274,,,,,,,,,,,,,,,,,
08/04/2016 5:00,268,,,,,,,,,,,,,,,,,
08/04/2016 6:00,285,,,,,,,,,,,,,,,,,
08/04/2016 7:00,308,,,,,,,,,,,,,,,,,
08/04/2016 8:00,368,,,,,,,,,,,,,,,,,
08/04/2016 9:00,410,,,,,,,,,,,,,,,,,
08/04/2016 10:00,468,,,,,,,,,,,,,,,,,
08/04/2016 11:00,463,,,,,,,,,,,,,,,,,
08/04/2016 12:00,461,,,,,,,,,,,,,,,,,
08/04/2016 13:00,448,,,,,,,,,,,,,,,,,
08/04/2016 14:00,456,,,,,,,,,,,,,,,,,
08/04/2016 15:00,478,,,,,,,,,,,,,,,,,
08/04/2016 16:00,477,,,,,,,,,,,,,,,,,
08/04/2016 17:00,443,,,,,,,,,,,,,,,,,
08/04/2016 18:00,444,,,,,,,,,,,,,,,,,
08/04/2016 19:00,413,,,,,,,,,,,,,,,,,
08/04/2016 20:00,338,,,,,,,,,,,,,,,,,
08/04/2016 21:00,346,,,,,,,,,,,,,,,,,
08/04/2016 22:00,383,,,,,,,,,,,,,,,,,
08/04/2016 23:00,312,,,,,,,,,,,,,,,,,
08/05/2016 0:00,282,,,,,,,,,,,,,,,,,
08/05/2016 1:00,237,,,,,,,,,,,,,,,,,
08/05/2016 2:00,260,,,,,,,,,,,,,,,,,
08/05/2016 3:00,279,,,,,,,,,,,,,,,,,
08/05/2016 4:00,266,,,,,,,,,,,,,,,,,
08/05/2016 5:00,265,,,,,,,,,,,,,,,,,
08/05/2016 6:00,261,,,,,,,,,,,,,,,,,
08/05/2016 7:00,288,,,,,,,,,,,,,,,,,
08/05/2016 8:00,296,,,,,,,,,,,,,,,,,
08/05/2016 9:00,350,,,,,,,,,,,,,,,,,
08/05/2016 10:00,401,,,,,,,,,,,,,,,,,
08/05/2016 11:00,438,,,,,,,,,,,,,,,,,
08/05/2016 12:00,455,,,,,,,,,,,,,,,,,
08/05/2016 13:00,438,,,,,,,,,,,,,,,,,
08/05/2016 14:00,448,,,,,,,,,,,,,,,,,
08/05/2016 15:00,420,,,,,,,,,,,,,,,,,
08/05/2016 16:00,400,,,,,,,,,,,,,,,,,
08/05/2016 17:00,393,,,,,,,,,,,,,,,,,
08/05/2016 18:00,370,,,,,,,,,,,,,,,,,
08/05/2016 19:00,329,,,,,,,,,,,,,,,,,
08/05/2016 20:00,297,,,,,,,,,,,,,,,,,
08/05/2016 21:00,273,,,,,,,,,,,,,,,,,
08/05/2016 22:00,271,,,,,,,,,,,,,,,,,
08/05/2016 23:00,252,,,,,,,,,,,,,,,,,
08/06/2016 0:00,210,,,,,,,,,,,,,,,,,
08/06/2016 1:00,199,,,,,,,,,,,,,,,,,
08/06/2016 2:00,190,,,,,,,,,,,,,,,,,
08/06/2016 3:00,216,,,,,,,,,,,,,,,,,
08/06/2016 4:00,255,,,,,,,,,,,,,,,,,
08/06/2016 5:00,247,,,,,,,,,,,,,,,,,
08/06/2016 6:00,265,,,,,,,,,,,,,,,,,
08/06/2016 7:00,230,,,,,,,,,,,,,,,,,
08/06/2016 8:00,253,,,,,,,,,,,,,,,,,
08/06/2016 9:00,311,,,,,,,,,,,,,,,,,
08/06/2016 10:00,326,,,,,,,,,,,,,,,,,
08/06/2016 11:00,355,,,,,,,,,,,,,,,,,
08/06/2016 12:00,373,,,,,,,,,,,,,,,,,
08/06/2016 13:00,327,,,,,,,,,,,,,,,,,
08/06/2016 14:00,324,,,,,,,,,,,,,,,,,
08/06/2016 15:00,320,,,,,,,,,,,,,,,,,
08/06/2016 16:00,312,,,,,,,,,,,,,,,,,
08/06/2016 17:00,320,,,,,,,,,,,,,,,,,
08/06/2016 18:00,323,,,,,,,,,,,,,,,,,
08/06/2016 19:00,354,,,,,,,,,,,,,,,,,
08/06/2016 20:00,322,,,,,,,,,,,,,,,,,
08/06/2016 21:00,340,,,,,,,,,,,,,,,,,
08/06/2016 22:00,365,,,,,,,,,,,,,,,,,
08/06/2016 23:00,334,,,,,,,,,,,,,,,,,
08/07/2016 0:00,324,,,,,,,,,,,,,,,,,
08/07/2016 1:00,297,,,,,,,,,,,,,,,,,
08/07/2016 2:00,281,,,,,,,,,,,,,,,,,
08/07/2016 3:00,299,,,,,,,,,,,,,,,,,
08/07/2016 4:00,304,,,,,,,,,,,,,,,,,
08/07/2016 5:00,316,,,,,,,,,,,,,,,,,
08/07/2016 6:00,312,,,,,,,,,,,,,,,,,
08/07/2016 7:00,327,,,,,,,,,,,,,,,,,
08/07/2016 8:00,347,,,,,,,,,,,,,,,,,
08/07/2016 9:00,374,,,,,,,,,,,,,,,,,
08/07/2016 10:00,383,,,,,,,,,,,,,,,,,
08/07/2016 11:00,421,,,,,,,,,,,,,,,,,
08/07/2016 12:00,445,,,,,,,,,,,,,,,,,
08/07/2016 13:00,437,,,,,,,,,,,,,,,,,
08/07/2016 14:00,411,,,,,,,,,,,,,,,,,
08/07/2016 15:00,403,,,,,,,,,,,,,,,,,
08/07/2016 16:00,361,,,,,,,,,,,,,,,,,
08/07/2016 17:00,369,,,,,,,,,,,,,,,,,
08/07/2016 18:00,387,,,,,,,,,,,,,,,,,
08/07/2016 19:00,383,,,,,,,,,,,,,,,,,
08/07/2016 20:00,367,,,,,,,,,,,,,,,,,
08/07/2016 21:00,380,,,,,,,,,,,,,,,,,
08/07/2016 22:00,373,,,,,,,,,,,,,,,,,
08/07/2016 23:00,307,,,,,,,,,,,,,,,,,
08/08/2016 0:00,276,,,,,,,,,,,,,,,,,
08/08/2016 1:00,254,,,,,,,,,,,,,,,,,
08/08/2016 2:00,235,,,,,,,,,,,,,,,,,
08/08/2016 3:00,226,,,,,,,,,,,,,,,,,
08/08/2016 4:00,224,,,,,,,,,,,,,,,,,
08/08/2016 5:00,224,,,,,,,,,,,,,,,,,
08/08/2016 6:00,239,,,,,,,,,,,,,,,,,
08/08/2016 7:00,266,,,,,,,,,,,,,,,,,
08/08/2016 8:00,362,,,,,,,,,,,,,,,,,
08/08/2016 9:00,420,,,,,,,,,,,,,,,,,
08/08/2016 10:00,437,,,,,,,,,,,,,,,,,
08/08/2016 11:00,446,,,,,,,,,,,,,,,,,
08/08/2016 12:00,433,,,,,,,,,,,,,,,,,
08/08/2016 13:00,427,,,,,,,,,,,,,,,,,
08/08/2016 14:00,410,,,,,,,,,,,,,,,,,
08/08/2016 15:00,412,,,,,,,,,,,,,,,,,
08/08/2016 16:00,405,,,,,,,,,,,,,,,,,
08/08/2016 17:00,425,,,,,,,,,,,,,,,,,
08/08/2016 18:00,411,,,,,,,,,,,,,,,,,
08/08/2016 19:00,384,,,,,,,,,,,,,,,,,
08/08/2016 20:00,358,,,,,,,,,,,,,,,,,
08/08/2016 21:00,391,,,,,,,,,,,,,,,,,
08/08/2016 22:00,355,,,,,,,,,,,,,,,,,
08/08/2016 23:00,298,,,,,,,,,,,,,,,,,
08/09/2016 0:00,262,,,,,,,,,,,,,,,,,
08/09/2016 1:00,271,,,,,,,,,,,,,,,,,
08/09/2016 2:00,280,,,,,,,,,,,,,,,,,
08/09/2016 3:00,267,,,,,,,,,,,,,,,,,
08/09/2016 4:00,261,,,,,,,,,,,,,,,,,
08/09/2016 5:00,258,,,,,,,,,,,,,,,,,
08/09/2016 6:00,283,,,,,,,,,,,,,,,,,
08/09/2016 7:00,303,,,,,,,,,,,,,,,,,
08/09/2016 8:00,357,,,,,,,,,,,,,,,,,
08/09/2016 9:00,405,,,,,,,,,,,,,,,,,
08/09/2016 10:00,429,,,,,,,,,,,,,,,,,
08/09/2016 11:00,423,,,,,,,,,,,,,,,,,
08/09/2016 12:00,425,,,,,,,,,,,,,,,,,
08/09/2016 13:00,425,,,,,,,,,,,,,,,,,
08/09/2016 14:00,432,,,,,,,,,,,,,,,,,
08/09/2016 15:00,444,,,,,,,,,,,,,,,,,
08/09/2016 16:00,454,,,,,,,,,,,,,,,,,
08/09/2016 17:00,480,,,,,,,,,,,,,,,,,
08/09/2016 18:00,492,,,,,,,,,,,,,,,,,
08/09/2016 19:00,475,,,,,,,,,,,,,,,,,
08/09/2016 20:00,459,,,,,,,,,,,,,,,,,
08/09/2016 21:00,454,,,,,,,,,,,,,,,,,
08/09/2016 22:00,442,,,,,,,,,,,,,,,,,
08/09/2016 23:00,350,,,,,,,,,,,,,,,,,
08/10/2016 0:00,289,,,,,,,,,,,,,,,,,
08/10/2016 1:00,253,,,,,,,,,,,,,,,,,
08/10/2016 2:00,229,,,,,,,,,,,,,,,,,
08/10/2016 3:00,214,,,,,,,,,,,,,,,,,
08/10/2016 4:00,206,,,,,,,,,,,,,,,,,
08/10/2016 5:00,215,,,,,,,,,,,,,,,,,
08/10/2016 6:00,257,,,,,,,,,,,,,,,,,
08/10/2016 7:00,295,,,,,,,,,,,,,,,,,
08/10/2016 8:00,396,,,,,,,,,,,,,,,,,
08/10/2016 9:00,457,,,,,,,,,,,,,,,,,
08/10/2016 10:00,469,,,,,,,,,,,,,,,,,
08/10/2016 11:00,437,,,,,,,,,,,,,,,,,
08/10/2016 12:00,431,,,,,,,,,,,,,,,,,
08/10/2016 13:00,458,,,,,,,,,,,,,,,,,
08/10/2016 14:00,466,,,,,,,,,,,,,,,,,
08/10/2016 15:00,486,,,,,,,,,,,,,,,,,
08/10/2016 16:00,488,,,,,,,,,,,,,,,,,
08/10/2016 17:00,483,,,,,,,,,,,,,,,,,
08/10/2016 18:00,444,,,,,,,,,,,,,,,,,
08/10/2016 19:00,390,,,,,,,,,,,,,,,,,
08/10/2016 20:00,383,,,,,,,,,,,,,,,,,
08/10/2016 21:00,412,,,,,,,,,,,,,,,,,
08/10/2016 22:00,409,,,,,,,,,,,,,,,,,
08/10/2016 23:00,339,,,,,,,,,,,,,,,,,
08/11/2016 0:00,282,,,,,,,,,,,,,,,,,
08/11/2016 1:00,252,,,,,,,,,,,,,,,,,
08/11/2016 2:00,240,,,,,,,,,,,,,,,,,
08/11/2016 3:00,254,,,,,,,,,,,,,,,,,
08/11/2016 4:00,278,,,,,,,,,,,,,,,,,
08/11/2016 5:00,298,,,,,,,,,,,,,,,,,
08/11/2016 6:00,314,,,,,,,,,,,,,,,,,
08/11/2016 7:00,367,,,,,,,,,,,,,,,,,
08/11/2016 8:00,449,,,,,,,,,,,,,,,,,
08/11/2016 9:00,472,,,,,,,,,,,,,,,,,
08/11/2016 10:00,495,,,,,,,,,,,,,,,,,
08/11/2016 11:00,511,,,,,,,,,,,,,,,,,
08/11/2016 12:00,517,,,,,,,,,,,,,,,,,
08/11/2016 13:00,515,,,,,,,,,,,,,,,,,
08/11/2016 14:00,519,,,,,,,,,,,,,,,,,
08/11/2016 15:00,498,,,,,,,,,,,,,,,,,
08/11/2016 16:00,492,,,,,,,,,,,,,,,,,
08/11/2016 17:00,492,,,,,,,,,,,,,,,,,
08/11/2016 18:00,493,,,,,,,,,,,,,,,,,
08/11/2016 19:00,480,,,,,,,,,,,,,,,,,
08/11/2016 20:00,460,,,,,,,,,,,,,,,,,
08/11/2016 21:00,477,,,,,,,,,,,,,,,,,
08/11/2016 22:00,476,,,,,,,,,,,,,,,,,
08/11/2016 23:00,481,,,,,,,,,,,,,,,,,
08/12/2016 0:00,433,,,,,,,,,,,,,,,,,
08/12/2016 1:00,346,,,,,,,,,,,,,,,,,
08/12/2016 2:00,292,,,,,,,,,,,,,,,,,
08/12/2016 3:00,292,,,,,,,,,,,,,,,,,
08/12/2016 4:00,297,,,,,,,,,,,,,,,,,
08/12/2016 5:00,318,,,,,,,,,,,,,,,,,
08/12/2016 6:00,352,,,,,,,,,,,,,,,,,
08/12/2016 7:00,391,,,,,,,,,,,,,,,,,
08/12/2016 8:00,450,,,,,,,,,,,,,,,,,
08/12/2016 9:00,517,,,,,,,,,,,,,,,,,
08/12/2016 10:00,548,,,,,,,,,,,,,,,,,
08/12/2016 11:00,556,,,,,,,,,,,,,,,,,
08/12/2016 12:00,531,,,,,,,,,,,,,,,,,
08/12/2016 13:00,518,,,,,,,,,,,,,,,,,
08/12/2016 14:00,518,,,,,,,,,,,,,,,,,
08/12/2016 15:00,496,,,,,,,,,,,,,,,,,
08/12/2016 16:00,463,,,,,,,,,,,,,,,,,
08/12/2016 17:00,440,,,,,,,,,,,,,,,,,
08/12/2016 18:00,439,,,,,,,,,,,,,,,,,
08/12/2016 19:00,390,,,,,,,,,,,,,,,,,
08/12/2016 20:00,359,,,,,,,,,,,,,,,,,
08/12/2016 21:00,387,,,,,,,,,,,,,,,,,
08/12/2016 22:00,437,,,,,,,,,,,,,,,,,
08/12/2016 23:00,430,,,,,,,,,,,,,,,,,
08/13/2016 0:00,397,,,,,,,,,,,,,,,,,
08/13/2016 1:00,346,,,,,,,,,,,,,,,,,
08/13/2016 2:00,307,,,,,,,,,,,,,,,,,
08/13/2016 3:00,302,,,,,,,,,,,,,,,,,
08/13/2016 4:00,281,,,,,,,,,,,,,,,,,
08/13/2016 5:00,284,,,,,,,,,,,,,,,,,
08/13/2016 6:00,298,,,,,,,,,,,,,,,,,
08/13/2016 7:00,305,,,,,,,,,,,,,,,,,
08/13/2016 8:00,333,,,,,,,,,,,,,,,,,
08/13/2016 9:00,413,,,,,,,,,,,,,,,,,
08/13/2016 10:00,471,,,,,,,,,,,,,,,,,
08/13/2016 11:00,504,,,,,,,,,,,,,,,,,
08/13/2016 12:00,516,,,,,,,,,,,,,,,,,
08/13/2016 13:00,508,,,,,,,,,,,,,,,,,
08/13/2016 14:00,488,,,,,,,,,,,,,,,,,
08/13/2016 15:00,477,,,,,,,,,,,,,,,,,
08/13/2016 16:00,473,,,,,,,,,,,,,,,,,
08/13/2016 17:00,489,,,,,,,,,,,,,,,,,
08/13/2016 18:00,487,,,,,,,,,,,,,,,,,
08/13/2016 19:00,439,,,,,,,,,,,,,,,,,
08/13/2016 20:00,413,,,,,,,,,,,,,,,,,
08/13/2016 21:00,430,,,,,,,,,,,,,,,,,
08/13/2016 22:00,447,,,,,,,,,,,,,,,,,
08/13/2016 23:00,403,,,,,,,,,,,,,,,,,
08/14/2016 0:00,388,,,,,,,,,,,,,,,,,
08/14/2016 1:00,348,,,,,,,,,,,,,,,,,
08/14/2016 2:00,305,,,,,,,,,,,,,,,,,
08/14/2016 3:00,290,,,,,,,,,,,,,,,,,
08/14/2016 4:00,265,,,,,,,,,,,,,,,,,
08/14/2016 5:00,247,,,,,,,,,,,,,,,,,
08/14/2016 6:00,248,,,,,,,,,,,,,,,,,
08/14/2016 7:00,261,,,,,,,,,,,,,,,,,
08/14/2016 8:00,254,,,,,,,,,,,,,,,,,
08/14/2016 9:00,294,,,,,,,,,,,,,,,,,
08/14/2016 10:00,326,,,,,,,,,,,,,,,,,
08/14/2016 11:00,406,,,,,,,,,,,,,,,,,
08/14/2016 12:00,469,,,,,,,,,,,,,,,,,
08/14/2016 13:00,481,,,,,,,,,,,,,,,,,
08/14/2016 14:00,488,,,,,,,,,,,,,,,,,
08/14/2016 15:00,470,,,,,,,,,,,,,,,,,
08/14/2016 16:00,462,,,,,,,,,,,,,,,,,
08/14/2016 17:00,500,,,,,,,,,,,,,,,,,
08/14/2016 18:00,488,,,,,,,,,,,,,,,,,
08/14/2016 19:00,475,,,,,,,,,,,,,,,,,
08/14/2016 20:00,481,,,,,,,,,,,,,,,,,
08/14/2016 21:00,485,,,,,,,,,,,,,,,,,
08/14/2016 22:00,451,,,,,,,,,,,,,,,,,
08/14/2016 23:00,441,,,,,,,,,,,,,,,,,
08/15/2016 0:00,391,,,,,,,,,,,,,,,,,
08/15/2016 1:00,347,,,,,,,,,,,,,,,,,
08/15/2016 2:00,342,,,,,,,,,,,,,,,,,
08/15/2016 3:00,319,,,,,,,,,,,,,,,,,
08/15/2016 4:00,313,,,,,,,,,,,,,,,,,
08/15/2016 5:00,319,,,,,,,,,,,,,,,,,
08/15/2016 6:00,350,,,,,,,,,,,,,,,,,
08/15/2016 7:00,407,,,,,,,,,,,,,,,,,
08/15/2016 8:00,473,,,,,,,,,,,,,,,,,
08/15/2016 9:00,517,,,,,,,,,,,,,,,,,
08/15/2016 10:00,547,,,,,,,,,,,,,,,,,
08/15/2016 11:00,540,,,,,,,,,,,,,,,,,
08/15/2016 12:00,538,,,,,,,,,,,,,,,,,
08/15/2016 13:00,503,,,,,,,,,,,,,,,,,
08/15/2016 14:00,508,,,,,,,,,,,,,,,,,
08/15/2016 15:00,508,,,,,,,,,,,,,,,,,
08/15/2016 16:00,500,,,,,,,,,,,,,,,,,
08/15/2016 17:00,515,,,,,,,,,,,,,,,,,
08/15/2016 18:00,518,,,,,,,,,,,,,,,,,
08/15/2016 19:00,492,,,,,,,,,,,,,,,,,
08/15/2016 20:00,513,,,,,,,,,,,,,,,,,
08/15/2016 21:00,534,,,,,,,,,,,,,,,,,
08/15/2016 22:00,532,,,,,,,,,,,,,,,,,
08/15/2016 23:00,475,,,,,,,,,,,,,,,,,
08/16/2016 0:00,451,,,,,,,,,,,,,,,,,
08/16/2016 1:00,400,,,,,,,,,,,,,,,,,
08/16/2016 2:00,383,,,,,,,,,,,,,,,,,
08/16/2016 3:00,366,,,,,,,,,,,,,,,,,
08/16/2016 4:00,352,,,,,,,,,,,,,,,,,
08/16/2016 5:00,351,,,,,,,,,,,,,,,,,
08/16/2016 6:00,380,,,,,,,,,,,,,,,,,
08/16/2016 7:00,412,,,,,,,,,,,,,,,,,
08/16/2016 8:00,488,,,,,,,,,,,,,,,,,
08/16/2016 9:00,540,,,,,,,,,,,,,,,,,
08/16/2016 10:00,517,,,,,,,,,,,,,,,,,
08/16/2016 11:00,507,,,,,,,,,,,,,,,,,
08/16/2016 12:00,537,,,,,,,,,,,,,,,,,
08/16/2016 13:00,543,,,,,,,,,,,,,,,,,
08/16/2016 14:00,536,,,,,,,,,,,,,,,,,
08/16/2016 15:00,498,,,,,,,,,,,,,,,,,
08/16/2016 16:00,488,,,,,,,,,,,,,,,,,
08/16/2016 17:00,520,,,,,,,,,,,,,,,,,
08/16/2016 18:00,514,,,,,,,,,,,,,,,,,
08/16/2016 19:00,504,,,,,,,,,,,,,,,,,
08/16/2016 20:00,505,,,,,,,,,,,,,,,,,
08/16/2016 21:00,517,,,,,,,,,,,,,,,,,
08/16/2016 22:00,507,,,,,,,,,,,,,,,,,
08/16/2016 23:00,474,,,,,,,,,,,,,,,,,
08/17/2016 0:00,476,,,,,,,,,,,,,,,,,
08/17/2016 1:00,417,,,,,,,,,,,,,,,,,
08/17/2016 2:00,378,,,,,,,,,,,,,,,,,
08/17/2016 3:00,386,,,,,,,,,,,,,,,,,
08/17/2016 4:00,327,,,,,,,,,,,,,,,,,
08/17/2016 5:00,308,,,,,,,,,,,,,,,,,
08/17/2016 6:00,282,,,,,,,,,,,,,,,,,
08/17/2016 7:00,296,,,,,,,,,,,,,,,,,
08/17/2016 8:00,306,,,,,,,,,,,,,,,,,
08/17/2016 9:00,324,,,,,,,,,,,,,,,,,
08/17/2016 10:00,380,,,,,,,,,,,,,,,,,
08/17/2016 11:00,422,,,,,,,,,,,,,,,,,
08/17/2016 12:00,469,,,,,,,,,,,,,,,,,
08/17/2016 13:00,490,,,,,,,,,,,,,,,,,
08/17/2016 14:00,510,,,,,,,,,,,,,,,,,
08/17/2016 15:00,510,,,,,,,,,,,,,,,,,
08/17/2016 16:00,518,,,,,,,,,,,,,,,,,
08/17/2016 17:00,532,,,,,,,,,,,,,,,,,
08/17/2016 18:00,509,,,,,,,,,,,,,,,,,
08/17/2016 19:00,464,,,,,,,,,,,,,,,,,
08/17/2016 20:00,445,,,,,,,,,,,,,,,,,
08/17/2016 21:00,456,,,,,,,,,,,,,,,,,
08/17/2016 22:00,429,,,,,,,,,,,,,,,,,
08/17/2016 23:00,384,,,,,,,,,,,,,,,,,
08/18/2016 0:00,391,,,,,,,,,,,,,,,,,
08/18/2016 1:00,343,,,,,,,,,,,,,,,,,
08/18/2016 2:00,333,,,,,,,,,,,,,,,,,
08/18/2016 3:00,336,,,,,,,,,,,,,,,,,
08/18/2016 4:00,320,,,,,,,,,,,,,,,,,
08/18/2016 5:00,322,,,,,,,,,,,,,,,,,
08/18/2016 6:00,368,,,,,,,,,,,,,,,,,
08/18/2016 7:00,440,,,,,,,,,,,,,,,,,
08/18/2016 8:00,505,,,,,,,,,,,,,,,,,
08/18/2016 9:00,558,,,,,,,,,,,,,,,,,
08/18/2016 10:00,582,,,,,,,,,,,,,,,,,
08/18/2016 11:00,599,,,,,,,,,,,,,,,,,
08/18/2016 12:00,575,,,,,,,,,,,,,,,,,
08/18/2016 13:00,546,,,,,,,,,,,,,,,,,
08/18/2016 14:00,508,,,,,,,,,,,,,,,,,
08/18/2016 15:00,492,,,,,,,,,,,,,,,,,
08/18/2016 16:00,465,,,,,,,,,,,,,,,,,
08/18/2016 17:00,481,,,,,,,,,,,,,,,,,
08/18/2016 18:00,463,,,,,,,,,,,,,,,,,
08/18/2016 19:00,453,,,,,,,,,,,,,,,,,
08/18/2016 20:00,440,,,,,,,,,,,,,,,,,
08/18/2016 21:00,463,,,,,,,,,,,,,,,,,
08/18/2016 22:00,444,,,,,,,,,,,,,,,,,
08/18/2016 23:00,382,,,,,,,,,,,,,,,,,
08/19/2016 0:00,316,,,,,,,,,,,,,,,,,
08/19/2016 1:00,284,,,,,,,,,,,,,,,,,
08/19/2016 2:00,256,,,,,,,,,,,,,,,,,
08/19/2016 3:00,274,,,,,,,,,,,,,,,,,
08/19/2016 4:00,278,,,,,,,,,,,,,,,,,
08/19/2016 5:00,281,,,,,,,,,,,,,,,,,
08/19/2016 6:00,294,,,,,,,,,,,,,,,,,
08/19/2016 7:00,340,,,,,,,,,,,,,,,,,
08/19/2016 8:00,345,,,,,,,,,,,,,,,,,
08/19/2016 9:00,439,,,,,,,,,,,,,,,,,
08/19/2016 10:00,488,,,,,,,,,,,,,,,,,
08/19/2016 11:00,490,,,,,,,,,,,,,,,,,
08/19/2016 12:00,481,,,,,,,,,,,,,,,,,
08/19/2016 13:00,486,,,,,,,,,,,,,,,,,
08/19/2016 14:00,483,,,,,,,,,,,,,,,,,
08/19/2016 15:00,496,,,,,,,,,,,,,,,,,
08/19/2016 16:00,488,,,,,,,,,,,,,,,,,
08/19/2016 17:00,493,,,,,,,,,,,,,,,,,
08/19/2016 18:00,467,,,,,,,,,,,,,,,,,
08/19/2016 19:00,453,,,,,,,,,,,,,,,,,
08/19/2016 20:00,429,,,,,,,,,,,,,,,,,
08/19/2016 21:00,432,,,,,,,,,,,,,,,,,
08/19/2016 22:00,434,,,,,,,,,,,,,,,,,
08/19/2016 23:00,396,,,,,,,,,,,,,,,,,
08/20/2016 0:00,356,,,,,,,,,,,,,,,,,
08/20/2016 1:00,328,,,,,,,,,,,,,,,,,
08/20/2016 2:00,300,,,,,,,,,,,,,,,,,
08/20/2016 3:00,282,,,,,,,,,,,,,,,,,
08/20/2016 4:00,284,,,,,,,,,,,,,,,,,
08/20/2016 5:00,288,,,,,,,,,,,,,,,,,
08/20/2016 6:00,306,,,,,,,,,,,,,,,,,
08/20/2016 7:00,311,,,,,,,,,,,,,,,,,
08/20/2016 8:00,322,,,,,,,,,,,,,,,,,
08/20/2016 9:00,381,,,,,,,,,,,,,,,,,
08/20/2016 10:00,402,,,,,,,,,,,,,,,,,
08/20/2016 11:00,433,,,,,,,,,,,,,,,,,
08/20/2016 12:00,440,,,,,,,,,,,,,,,,,
08/20/2016 13:00,436,,,,,,,,,,,,,,,,,
08/20/2016 14:00,431,,,,,,,,,,,,,,,,,
08/20/2016 15:00,420,,,,,,,,,,,,,,,,,
08/20/2016 16:00,398,,,,,,,,,,,,,,,,,
08/20/2016 17:00,398,,,,,,,,,,,,,,,,,
08/20/2016 18:00,398,,,,,,,,,,,,,,,,,
08/20/2016 19:00,389,,,,,,,,,,,,,,,,,
08/20/2016 20:00,420,,,,,,,,,,,,,,,,,
08/20/2016 21:00,413,,,,,,,,,,,,,,,,,
08/20/2016 22:00,424,,,,,,,,,,,,,,,,,
08/20/2016 23:00,419,,,,,,,,,,,,,,,,,
08/21/2016 0:00,382,,,,,,,,,,,,,,,,,
08/21/2016 1:00,337,,,,,,,,,,,,,,,,,
08/21/2016 2:00,324,,,,,,,,,,,,,,,,,
08/21/2016 3:00,305,,,,,,,,,,,,,,,,,
08/21/2016 4:00,296,,,,,,,,,,,,,,,,,
08/21/2016 5:00,289,,,,,,,,,,,,,,,,,
08/21/2016 6:00,285,,,,,,,,,,,,,,,,,
08/21/2016 7:00,286,,,,,,,,,,,,,,,,,
08/21/2016 8:00,298,,,,,,,,,,,,,,,,,
08/21/2016 9:00,365,,,,,,,,,,,,,,,,,
08/21/2016 10:00,429,,,,,,,,,,,,,,,,,
08/21/2016 11:00,450,,,,,,,,,,,,,,,,,
08/21/2016 12:00,462,,,,,,,,,,,,,,,,,
08/21/2016 13:00,470,,,,,,,,,,,,,,,,,
08/21/2016 14:00,451,,,,,,,,,,,,,,,,,
08/21/2016 15:00,426,,,,,,,,,,,,,,,,,
08/21/2016 16:00,422,,,,,,,,,,,,,,,,,
08/21/2016 17:00,430,,,,,,,,,,,,,,,,,
08/21/2016 18:00,447,,,,,,,,,,,,,,,,,
08/21/2016 19:00,435,,,,,,,,,,,,,,,,,
08/21/2016 20:00,423,,,,,,,,,,,,,,,,,
08/21/2016 21:00,442,,,,,,,,,,,,,,,,,
08/21/2016 22:00,435,,,,,,,,,,,,,,,,,
08/21/2016 23:00,400,,,,,,,,,,,,,,,,,
08/22/2016 0:00,343,,,,,,,,,,,,,,,,,
08/22/2016 1:00,287,,,,,,,,,,,,,,,,,
08/22/2016 2:00,252,,,,,,,,,,,,,,,,,
08/22/2016 3:00,232,,,,,,,,,,,,,,,,,
08/22/2016 4:00,233,,,,,,,,,,,,,,,,,
08/22/2016 5:00,221,,,,,,,,,,,,,,,,,
08/22/2016 6:00,260,,,,,,,,,,,,,,,,,
08/22/2016 7:00,306,,,,,,,,,,,,,,,,,
08/22/2016 8:00,382,,,,,,,,,,,,,,,,,
08/22/2016 9:00,371,,,,,,,,,,,,,,,,,
08/22/2016 10:00,385,,,,,,,,,,,,,,,,,
08/22/2016 11:00,428,,,,,,,,,,,,,,,,,
08/22/2016 12:00,516,,,,,,,,,,,,,,,,,
08/22/2016 13:00,549,,,,,,,,,,,,,,,,,
08/22/2016 14:00,539,,,,,,,,,,,,,,,,,
08/22/2016 15:00,512,,,,,,,,,,,,,,,,,
08/22/2016 16:00,525,,,,,,,,,,,,,,,,,
08/22/2016 17:00,543,,,,,,,,,,,,,,,,,
08/22/2016 18:00,526,,,,,,,,,,,,,,,,,
08/22/2016 19:00,473,,,,,,,,,,,,,,,,,
08/22/2016 20:00,467,,,,,,,,,,,,,,,,,
08/22/2016 21:00,443,,,,,,,,,,,,,,,,,
08/22/2016 22:00,410,,,,,,,,,,,,,,,,,
08/22/2016 23:00,360,,,,,,,,,,,,,,,,,
08/23/2016 0:00,309,,,,,,,,,,,,,,,,,
08/23/2016 1:00,283,,,,,,,,,,,,,,,,,
08/23/2016 2:00,252,,,,,,,,,,,,,,,,,
08/23/2016 3:00,234,,,,,,,,,,,,,,,,,
08/23/2016 4:00,242,,,,,,,,,,,,,,,,,
08/23/2016 5:00,247,,,,,,,,,,,,,,,,,
08/23/2016 6:00,271,,,,,,,,,,,,,,,,,
08/23/2016 7:00,277,,,,,,,,,,,,,,,,,
08/23/2016 8:00,290,,,,,,,,,,,,,,,,,
08/23/2016 9:00,340,,,,,,,,,,,,,,,,,
08/23/2016 10:00,369,,,,,,,,,,,,,,,,,
08/23/2016 11:00,373,,,,,,,,,,,,,,,,,
08/23/2016 12:00,400,,,,,,,,,,,,,,,,,
08/23/2016 13:00,427,,,,,,,,,,,,,,,,,
08/23/2016 14:00,462,,,,,,,,,,,,,,,,,
08/23/2016 15:00,456,,,,,,,,,,,,,,,,,
08/23/2016 16:00,462,,,,,,,,,,,,,,,,,
08/23/2016 17:00,478,,,,,,,,,,,,,,,,,
08/23/2016 18:00,459,,,,,,,,,,,,,,,,,
08/23/2016 19:00,431,,,,,,,,,,,,,,,,,
08/23/2016 20:00,416,,,,,,,,,,,,,,,,,
08/23/2016 21:00,402,,,,,,,,,,,,,,,,,
08/23/2016 22:00,380,,,,,,,,,,,,,,,,,
08/23/2016 23:00,303,,,,,,,,,,,,,,,,,
08/24/2016 0:00,256,,,,,,,,,,,,,,,,,
08/24/2016 1:00,215,,,,,,,,,,,,,,,,,
08/24/2016 2:00,231,,,,,,,,,,,,,,,,,
08/24/2016 3:00,239,,,,,,,,,,,,,,,,,
08/24/2016 4:00,204,,,,,,,,,,,,,,,,,
08/24/2016 5:00,204,,,,,,,,,,,,,,,,,
08/24/2016 6:00,242,,,,,,,,,,,,,,,,,
08/24/2016 7:00,299,,,,,,,,,,,,,,,,,
08/24/2016 8:00,338,,,,,,,,,,,,,,,,,
08/24/2016 9:00,391,,,,,,,,,,,,,,,,,
08/24/2016 10:00,440,,,,,,,,,,,,,,,,,
08/24/2016 11:00,455,,,,,,,,,,,,,,,,,
08/24/2016 12:00,492,,,,,,,,,,,,,,,,,
08/24/2016 13:00,487,,,,,,,,,,,,,,,,,
08/24/2016 14:00,492,,,,,,,,,,,,,,,,,
08/24/2016 15:00,454,,,,,,,,,,,,,,,,,
08/24/2016 16:00,449,,,,,,,,,,,,,,,,,
08/24/2016 17:00,457,,,,,,,,,,,,,,,,,
08/24/2016 18:00,468,,,,,,,,,,,,,,,,,
08/24/2016 19:00,458,,,,,,,,,,,,,,,,,
08/24/2016 20:00,422,,,,,,,,,,,,,,,,,
08/24/2016 21:00,417,,,,,,,,,,,,,,,,,
08/24/2016 22:00,387,,,,,,,,,,,,,,,,,
08/24/2016 23:00,336,,,,,,,,,,,,,,,,,
08/25/2016 0:00,340,,,,,,,,,,,,,,,,,
08/25/2016 1:00,298,,,,,,,,,,,,,,,,,
08/25/2016 2:00,260,,,,,,,,,,,,,,,,,
08/25/2016 3:00,214,,,,,,,,,,,,,,,,,
08/25/2016 4:00,193,,,,,,,,,,,,,,,,,
08/25/2016 5:00,178,,,,,,,,,,,,,,,,,
08/25/2016 6:00,238,,,,,,,,,,,,,,,,,
08/25/2016 7:00,248,,,,,,,,,,,,,,,,,
08/25/2016 8:00,332,,,,,,,,,,,,,,,,,
08/25/2016 9:00,389,,,,,,,,,,,,,,,,,
08/25/2016 10:00,431,,,,,,,,,,,,,,,,,
08/25/2016 11:00,448,,,,,,,,,,,,,,,,,
08/25/2016 12:00,460,,,,,,,,,,,,,,,,,
08/25/2016 13:00,465,,,,,,,,,,,,,,,,,
08/25/2016 14:00,428,,,,,,,,,,,,,,,,,
08/25/2016 15:00,421,,,,,,,,,,,,,,,,,
08/25/2016 16:00,417,,,,,,,,,,,,,,,,,
08/25/2016 17:00,419,,,,,,,,,,,,,,,,,
08/25/2016 18:00,402,,,,,,,,,,,,,,,,,
08/25/2016 19:00,381,,,,,,,,,,,,,,,,,
08/25/2016 20:00,390,,,,,,,,,,,,,,,,,
08/25/2016 21:00,403,,,,,,,,,,,,,,,,,
08/25/2016 22:00,416,,,,,,,,,,,,,,,,,
08/25/2016 23:00,393,,,,,,,,,,,,,,,,,
08/26/2016 0:00,353,,,,,,,,,,,,,,,,,
08/26/2016 1:00,284,,,,,,,,,,,,,,,,,
08/26/2016 2:00,245,,,,,,,,,,,,,,,,,
08/26/2016 3:00,238,,,,,,,,,,,,,,,,,
08/26/2016 4:00,237,,,,,,,,,,,,,,,,,
08/26/2016 5:00,202,,,,,,,,,,,,,,,,,
08/26/2016 6:00,227,,,,,,,,,,,,,,,,,
08/26/2016 7:00,282,,,,,,,,,,,,,,,,,
08/26/2016 8:00,352,,,,,,,,,,,,,,,,,
08/26/2016 9:00,411,,,,,,,,,,,,,,,,,
08/26/2016 10:00,460,,,,,,,,,,,,,,,,,
08/26/2016 11:00,491,,,,,,,,,,,,,,,,,
08/26/2016 12:00,502,,,,,,,,,,,,,,,,,
08/26/2016 13:00,490,,,,,,,,,,,,,,,,,
08/26/2016 14:00,469,,,,,,,,,,,,,,,,,
08/26/2016 15:00,456,,,,,,,,,,,,,,,,,
08/26/2016 16:00,454,,,,,,,,,,,,,,,,,
08/26/2016 17:00,462,,,,,,,,,,,,,,,,,
08/26/2016 18:00,440,,,,,,,,,,,,,,,,,
08/26/2016 19:00,411,,,,,,,,,,,,,,,,,
08/26/2016 20:00,389,,,,,,,,,,,,,,,,,
08/26/2016 21:00,399,,,,,,,,,,,,,,,,,